User: anonymous   Login
Location: Theydon Bois
(51.6750°N, 0.1050°E)
Time: 11:20:39
(UTC+00:00)
Language:

Cosmos 1766 Rocket - Orbit

View from above orbital plane
View from above orbital plane
View from above satellite
View from above satellite

Ground track
Ground track

The orbit data is extracted from the following two-line orbital elements,

1 16882U 86055B   17346.83552483  .00000068  00000-0  53448-5 0  9991
2 16882  82.5228  66.3143 0020060 173.8045 325.5697 14.83144420694369
Epoch (UTC): 12 December 2017 20:03:09
Eccentricity: 0.0020060
inclination: 82.5228°
perigee height: 605 km
apogee height: 633 km
right ascension of ascending node: 66.3143°
argument of perigee: 173.8045°
revolutions per day: 14.83144420
mean anomaly at epoch: 325.5697°
orbit number at epoch: 69436

The dashed part of the orbit path shows where the satellite is in the earth's shadow,  

DLR